EZY4GC EGBB-LEGE

Flight info

Callsign EZY4GC
Flight time 1h 41m
Altitude 37000
Route CPT UN859 SOPIL DCT BALAN DCT EVPOK DCT NARAK DCT GAI DCT PPG/N0355F190 A27 KANIG
Aircraft A320/M-SDE3FGHIRWY/LB1

Departure

Time 2026-05-06 19:55
Airport Birmingham Airport (EGBB)

Arrival

Time 2026-05-06 21:36
Airport Girona-Costa Brava Airport (LEGE)
Time Latitude Longitude Altitude Speed Heading
2026-05-06 19:15 52.45093 -1.73546 321 ft 0 kts 141°
2026-05-06 19:42 52.45096 -1.73551 323 ft 3 kts 141°
2026-05-06 19:42 52.45113 -1.73574 322 ft 4 kts 144°
2026-05-06 19:42 52.45136 -1.73592 322 ft 4 kts 182°
2026-05-06 19:42 52.45157 -1.73579 321 ft 4 kts 228°
2026-05-06 19:43 52.45161 -1.73575 321 ft 4 kts 236°
2026-05-06 19:43 52.45148 -1.73604 321 ft 0 kts 236°
2026-05-06 19:43 52.45148 -1.73605 321 ft 0 kts 236°
2026-05-06 19:47 52.45147 -1.73605 321 ft 1 kts 230°
2026-05-06 19:48 52.45132 -1.73641 323 ft 7 kts 236°
2026-05-06 19:48 52.45094 -1.73723 323 ft 11 kts 217°
2026-05-06 19:48 52.45026 -1.73734 323 ft 9 kts 157°
2026-05-06 19:48 52.44974 -1.73675 323 ft 9 kts 144°
2026-05-06 19:49 52.44912 -1.73641 324 ft 10 kts 194°
2026-05-06 19:49 52.44847 -1.73673 324 ft 9 kts 197°
2026-05-06 19:49 52.44790 -1.73700 322 ft 8 kts 196°
2026-05-06 19:49 52.44742 -1.73724 322 ft 7 kts 197°
2026-05-06 19:50 52.44699 -1.73715 322 ft 7 kts 150°
2026-05-06 19:50 52.44654 -1.73663 324 ft 8 kts 148°
2026-05-06 19:50 52.44626 -1.73634 324 ft 7 kts 147°
2026-05-06 19:51 52.44586 -1.73589 324 ft 6 kts 144°
2026-05-06 19:51 52.44554 -1.73550 324 ft 5 kts 144°
2026-05-06 19:51 52.44526 -1.73520 324 ft 4 kts 144°
2026-05-06 19:51 52.44495 -1.73485 324 ft 6 kts 144°
2026-05-06 19:52 52.44463 -1.73451 324 ft 4 kts 147°
2026-05-06 19:52 52.44443 -1.73430 323 ft 3 kts 147°
2026-05-06 19:52 52.44426 -1.73413 324 ft 5 kts 151°
2026-05-06 19:52 52.44373 -1.73430 322 ft 11 kts 223°
2026-05-06 19:53 52.44333 -1.73522 325 ft 8 kts 234°
2026-05-06 19:53 52.44321 -1.73603 324 ft 8 kts 289°
2026-05-06 19:53 52.44350 -1.73651 325 ft 0 kts 325°
2026-05-06 19:54 52.44385 -1.73691 325 ft 30 kts 324°
2026-05-06 19:54 52.44790 -1.74141 324 ft 106 kts 326°
2026-05-06 19:54 52.45557 -1.74999 327 ft 161 kts 325°
2026-05-06 19:54 52.46507 -1.76111 840 ft 172 kts 326°
2026-05-06 19:55 52.47501 -1.77286 1585 ft 180 kts 328°
2026-05-06 19:55 52.48551 -1.78457 2325 ft 183 kts 333°
2026-05-06 19:55 52.49744 -1.79085 3066 ft 180 kts 357°
2026-05-06 19:55 52.50977 -1.78922 3793 ft 177 kts
2026-05-06 19:56 52.52198 -1.78651 4542 ft 176 kts
2026-05-06 19:56 52.53406 -1.78396 5275 ft 174 kts
2026-05-06 19:56 52.54641 -1.78143 5745 ft 188 kts
2026-05-06 19:56 52.55997 -1.77870 6014 ft 210 kts
2026-05-06 19:57 52.57452 -1.77101 6329 ft 237 kts 32°
2026-05-06 19:57 52.58528 -1.74869 6758 ft 267 kts 69°
2026-05-06 19:57 52.58606 -1.71763 7498 ft 283 kts 104°
2026-05-06 19:57 52.57595 -1.68979 8341 ft 291 kts 138°
2026-05-06 19:58 52.55834 -1.67335 9249 ft 295 kts 162°
2026-05-06 19:58 52.53846 -1.66503 10179 ft 297 kts 171°
2026-05-06 19:58 52.51726 -1.65911 10543 ft 321 kts 172°
2026-05-06 19:58 52.49447 -1.65280 10962 ft 339 kts 171°
2026-05-06 19:59 52.47111 -1.64503 11716 ft 345 kts 168°
2026-05-06 19:59 52.44762 -1.63573 12534 ft 350 kts 166°
2026-05-06 19:59 52.42397 -1.62518 13341 ft 354 kts 165°
2026-05-06 19:59 52.40021 -1.61389 14096 ft 358 kts 165°
2026-05-06 20:00 52.37622 -1.60222 14803 ft 361 kts 165°
2026-05-06 20:00 52.35205 -1.59045 15509 ft 364 kts 165°
2026-05-06 20:00 52.32761 -1.57866 16225 ft 368 kts 165°
2026-05-06 20:00 52.30296 -1.56690 16932 ft 370 kts 165°
2026-05-06 20:01 52.27806 -1.55512 17640 ft 374 kts 165°
2026-05-06 20:01 52.25298 -1.54334 18328 ft 377 kts 165°
2026-05-06 20:01 52.22769 -1.53152 18928 ft 380 kts 165°
2026-05-06 20:01 52.20240 -1.51971 19506 ft 383 kts 165°
2026-05-06 20:02 52.17668 -1.50767 20095 ft 386 kts 165°
2026-05-06 20:02 52.15073 -1.49552 20645 ft 389 kts 165°
2026-05-06 20:02 52.12456 -1.48332 21205 ft 393 kts 165°
2026-05-06 20:02 52.09814 -1.47102 21752 ft 396 kts 165°
2026-05-06 20:03 52.07153 -1.45864 22305 ft 399 kts 165°
2026-05-06 20:03 52.04468 -1.44621 22850 ft 402 kts 165°
2026-05-06 20:03 52.01765 -1.43373 23361 ft 405 kts 165°
2026-05-06 20:03 51.99043 -1.42112 23830 ft 409 kts 165°
2026-05-06 20:04 51.96302 -1.40839 24265 ft 411 kts 165°
2026-05-06 20:04 51.93534 -1.39549 24709 ft 414 kts 166°
2026-05-06 20:04 51.90793 -1.38277 25148 ft 416 kts 166°
2026-05-06 20:04 51.87995 -1.36993 25574 ft 418 kts 166°
2026-05-06 20:05 51.85180 -1.35700 25993 ft 421 kts 166°
2026-05-06 20:05 51.82353 -1.34403 26409 ft 423 kts 166°
2026-05-06 20:05 51.79515 -1.33098 26808 ft 425 kts 166°
2026-05-06 20:05 51.76659 -1.31787 27237 ft 427 kts 166°
2026-05-06 20:06 51.73794 -1.30479 27636 ft 430 kts 166°
2026-05-06 20:06 51.70911 -1.29164 28038 ft 432 kts 166°
2026-05-06 20:06 51.68002 -1.27838 28439 ft 434 kts 166°
2026-05-06 20:06 51.65123 -1.26524 28827 ft 437 kts 166°
2026-05-06 20:07 51.62191 -1.25181 29210 ft 439 kts 166°
2026-05-06 20:07 51.59247 -1.23836 29599 ft 441 kts 166°
2026-05-06 20:07 51.56283 -1.22487 29936 ft 443 kts 166°
2026-05-06 20:07 51.53313 -1.21137 30260 ft 445 kts 166°
2026-05-06 20:08 51.50326 -1.19785 30552 ft 447 kts 166°
2026-05-06 20:08 51.47315 -1.18426 30838 ft 449 kts 166°
2026-05-06 20:08 51.44305 -1.17067 31127 ft 451 kts 166°
2026-05-06 20:08 51.41276 -1.15694 31403 ft 453 kts 166°
2026-05-06 20:09 51.38303 -1.13974 31716 ft 456 kts 158°
2026-05-06 20:09 51.35426 -1.11842 32104 ft 455 kts 157°
2026-05-06 20:09 51.32555 -1.09724 32502 ft 454 kts 157°
2026-05-06 20:09 51.29683 -1.07624 32907 ft 453 kts 158°
2026-05-06 20:10 51.26810 -1.05536 33301 ft 452 kts 158°
2026-05-06 20:10 51.23954 -1.03462 33698 ft 451 kts 158°
2026-05-06 20:10 51.21100 -1.01384 34083 ft 451 kts 158°
2026-05-06 20:10 51.18249 -0.99305 34400 ft 450 kts 157°
2026-05-06 20:11 51.15402 -0.97228 34703 ft 450 kts 157°
2026-05-06 20:11 51.12547 -0.95152 34991 ft 450 kts 157°
2026-05-06 20:11 51.10658 -0.93780 35175 ft 451 kts 157°
2026-05-06 20:11 51.07808 -0.91715 35447 ft 451 kts 157°
2026-05-06 20:12 51.04953 -0.89650 35713 ft 451 kts 157°
2026-05-06 20:12 51.02092 -0.87587 35978 ft 451 kts 157°
2026-05-06 20:12 50.99240 -0.85530 36238 ft 451 kts 157°
2026-05-06 20:12 50.96373 -0.83464 36485 ft 451 kts 157°
2026-05-06 20:13 50.93507 -0.81406 36728 ft 452 kts 157°
2026-05-06 20:13 50.90648 -0.79359 36939 ft 452 kts 157°
2026-05-06 20:13 50.84962 -0.75089 37004 ft 452 kts 150°
2026-05-06 20:14 50.79706 -0.69758 37005 ft 452 kts 148°
2026-05-06 20:14 50.74413 -0.64361 37002 ft 452 kts 148°
2026-05-06 20:15 50.69121 -0.58990 37003 ft 452 kts 149°
2026-05-06 20:15 50.63826 -0.53635 36994 ft 452 kts 149°
2026-05-06 20:16 50.58526 -0.48289 37004 ft 453 kts 149°
2026-05-06 20:16 50.53220 -0.42954 37009 ft 452 kts 149°
2026-05-06 20:17 50.47916 -0.37632 37012 ft 452 kts 149°
2026-05-06 20:17 50.42610 -0.32326 37015 ft 452 kts 149°
2026-05-06 20:18 50.37298 -0.27019 37010 ft 452 kts 149°
2026-05-06 20:18 50.31981 -0.21727 37013 ft 452 kts 149°
2026-05-06 20:19 50.26664 -0.16452 37016 ft 452 kts 149°
2026-05-06 20:19 50.21373 -0.11222 37020 ft 452 kts 149°
2026-05-06 20:20 50.16052 -0.05967 37016 ft 453 kts 149°
2026-05-06 20:20 50.10660 -0.00901 37017 ft 451 kts 156°
2026-05-06 20:21 50.04721 0.02097 37014 ft 449 kts 167°
2026-05-06 20:21 49.98661 0.04473 37014 ft 449 kts 167°
2026-05-06 20:22 49.92590 0.06859 37010 ft 450 kts 167°
2026-05-06 20:22 49.86549 0.09227 37013 ft 450 kts 167°
2026-05-06 20:23 49.80467 0.11601 37022 ft 450 kts 167°
2026-05-06 20:23 49.74381 0.13983 37022 ft 451 kts 167°
2026-05-06 20:24 49.68304 0.16354 37031 ft 451 kts 167°
2026-05-06 20:24 49.62224 0.18763 37037 ft 451 kts 166°
2026-05-06 20:25 49.56154 0.21223 37039 ft 451 kts 166°
2026-05-06 20:25 49.50117 0.23663 37033 ft 451 kts 166°
2026-05-06 20:26 49.44043 0.26103 37033 ft 451 kts 166°
2026-05-06 20:26 49.37958 0.28529 37035 ft 451 kts 166°
2026-05-06 20:27 49.31875 0.30948 37034 ft 451 kts 166°
2026-05-06 20:27 49.25800 0.33433 37028 ft 452 kts 166°
2026-05-06 20:28 49.19740 0.36015 37012 ft 452 kts 165°
2026-05-06 20:28 49.13724 0.38585 37016 ft 452 kts 166°
2026-05-06 20:29 49.07660 0.41127 37007 ft 452 kts 166°
2026-05-06 20:29 49.01596 0.43664 37005 ft 452 kts 165°
2026-05-06 20:30 48.92486 0.47466 37008 ft 452 kts 165°
2026-05-06 20:31 48.86422 0.49981 37009 ft 452 kts 166°
2026-05-06 20:31 48.80344 0.52493 37010 ft 452 kts 165°
2026-05-06 20:32 48.74309 0.54950 37012 ft 452 kts 166°
2026-05-06 20:32 48.68211 0.57323 37013 ft 452 kts 166°
2026-05-06 20:33 48.62116 0.59668 37008 ft 452 kts 166°
2026-05-06 20:33 48.56023 0.62035 37011 ft 452 kts 166°
2026-05-06 20:34 48.49921 0.64426 37009 ft 452 kts 166°
2026-05-06 20:34 48.43891 0.66873 37012 ft 452 kts 166°
2026-05-06 20:35 48.37824 0.69362 36996 ft 452 kts 166°
2026-05-06 20:35 48.31760 0.71860 36997 ft 452 kts 165°
2026-05-06 20:36 48.25705 0.74446 36998 ft 452 kts 165°
2026-05-06 20:36 48.19662 0.77058 36998 ft 452 kts 165°
2026-05-06 20:37 48.13610 0.79646 36993 ft 452 kts 165°
2026-05-06 20:37 48.07603 0.82188 36997 ft 452 kts 165°
2026-05-06 20:38 48.01542 0.84746 36992 ft 452 kts 165°
2026-05-06 20:38 47.95485 0.87311 36982 ft 452 kts 165°
2026-05-06 20:39 47.89423 0.89872 36987 ft 452 kts 165°
2026-05-06 20:39 47.83361 0.92424 36980 ft 453 kts 165°
2026-05-06 20:40 47.77293 0.94978 36972 ft 453 kts 165°
2026-05-06 20:40 47.71268 0.97501 36974 ft 453 kts 165°
2026-05-06 20:41 47.65188 1.00033 36979 ft 453 kts 165°
2026-05-06 20:41 47.59108 1.02558 36976 ft 453 kts 165°
2026-05-06 20:42 47.53036 1.05077 36976 ft 453 kts 165°
2026-05-06 20:42 47.47005 1.07578 36974 ft 453 kts 165°
2026-05-06 20:43 47.40933 1.10089 36981 ft 453 kts 165°
2026-05-06 20:43 47.34862 1.12595 36978 ft 453 kts 166°
2026-05-06 20:44 47.28778 1.15102 36970 ft 453 kts 166°
2026-05-06 20:44 47.22710 1.17599 36972 ft 453 kts 166°
2026-05-06 20:45 47.16633 1.20092 36967 ft 453 kts 166°
2026-05-06 20:45 47.10563 1.22564 36971 ft 453 kts 166°
2026-05-06 20:46 47.04527 1.25024 36977 ft 453 kts 166°
2026-05-06 20:46 46.98455 1.27501 36983 ft 453 kts 166°
2026-05-06 20:47 46.92383 1.29956 36973 ft 452 kts 166°
2026-05-06 20:47 46.86313 1.32404 36982 ft 452 kts 166°
2026-05-06 20:48 46.80243 1.34858 36986 ft 452 kts 166°
2026-05-06 20:48 46.74167 1.37304 36984 ft 452 kts 166°
2026-05-06 20:49 46.68093 1.39754 36981 ft 452 kts 166°
2026-05-06 20:49 46.62066 1.42174 36979 ft 452 kts 166°
2026-05-06 20:50 46.55990 1.44604 36971 ft 452 kts 166°
2026-05-06 20:50 46.49920 1.47020 36970 ft 452 kts 166°
2026-05-06 20:51 46.43844 1.49437 36963 ft 452 kts 166°
2026-05-06 20:51 46.37771 1.51849 36964 ft 452 kts 166°
2026-05-06 20:52 46.31701 1.54257 36959 ft 452 kts 166°
2026-05-06 20:52 46.25662 1.56647 36962 ft 452 kts 166°
2026-05-06 20:53 46.19593 1.59049 36963 ft 452 kts 166°
2026-05-06 20:53 46.13518 1.61447 36961 ft 452 kts 166°
2026-05-06 20:54 46.07448 1.63828 36964 ft 452 kts 166°
2026-05-06 20:54 46.01379 1.66200 36966 ft 451 kts 166°
2026-05-06 20:55 45.95315 1.68575 36951 ft 451 kts 167°
2026-05-06 20:55 45.89294 1.70921 36970 ft 451 kts 167°
2026-05-06 20:56 45.83245 1.73270 36972 ft 450 kts 167°
2026-05-06 20:56 45.77193 1.75623 36964 ft 450 kts 167°
2026-05-06 20:57 45.71152 1.77963 36966 ft 450 kts 167°
2026-05-06 20:57 45.65096 1.80305 36953 ft 450 kts 167°
2026-05-06 20:58 45.59052 1.82644 36957 ft 450 kts 167°
2026-05-06 20:58 45.53011 1.84966 36947 ft 449 kts 167°
2026-05-06 20:59 45.47990 1.86892 36951 ft 449 kts 167°
2026-05-06 20:59 45.41956 1.89209 36957 ft 449 kts 167°
2026-05-06 21:00 45.35916 1.91515 36953 ft 449 kts 167°
2026-05-06 21:00 45.29876 1.93810 36954 ft 449 kts 167°
2026-05-06 21:01 45.23849 1.96111 36961 ft 449 kts 167°
2026-05-06 21:01 45.17817 1.98410 36965 ft 449 kts 167°
2026-05-06 21:02 45.11781 2.00701 36952 ft 448 kts 168°
2026-05-06 21:02 45.05790 2.02960 36962 ft 448 kts 168°
2026-05-06 21:03 44.99759 2.05235 36970 ft 448 kts 168°
2026-05-06 21:03 44.93733 2.07510 36973 ft 448 kts 168°
2026-05-06 21:04 44.87710 2.09779 36979 ft 448 kts 168°
2026-05-06 21:04 44.81672 2.12044 36983 ft 448 kts 168°
2026-05-06 21:05 44.75672 2.14283 36980 ft 448 kts 168°
2026-05-06 21:05 44.69645 2.16535 36982 ft 448 kts 168°
2026-05-06 21:06 44.63614 2.18788 36985 ft 448 kts 168°
2026-05-06 21:06 44.57582 2.21025 36973 ft 448 kts 168°
2026-05-06 21:07 44.51552 2.23253 36983 ft 448 kts 168°
2026-05-06 21:07 44.45557 2.25467 36986 ft 448 kts 168°
2026-05-06 21:08 44.39531 2.27700 36974 ft 448 kts 169°
2026-05-06 21:08 44.33491 2.29939 36980 ft 447 kts 169°
2026-05-06 21:09 44.27475 2.32149 37002 ft 447 kts 169°
2026-05-06 21:09 44.21504 2.34343 37005 ft 446 kts 169°
2026-05-06 21:10 44.15489 2.36550 36994 ft 446 kts 169°
2026-05-06 21:10 44.09472 2.38748 37003 ft 446 kts 169°
2026-05-06 21:11 44.03468 2.40932 37006 ft 446 kts 169°
2026-05-06 21:11 43.97459 2.43116 36986 ft 446 kts 170°
2026-05-06 21:12 43.91486 2.45282 37006 ft 446 kts 170°
2026-05-06 21:12 43.85480 2.47457 37009 ft 446 kts 170°
2026-05-06 21:13 43.79466 2.49640 37001 ft 446 kts 170°
2026-05-06 21:13 43.76448 2.50731 36613 ft 448 kts 170°
2026-05-06 21:13 43.73434 2.51819 36160 ft 447 kts 170°
2026-05-06 21:13 43.70423 2.52906 35714 ft 447 kts 170°
2026-05-06 21:14 43.67410 2.53990 35277 ft 447 kts 170°
2026-05-06 21:14 43.64400 2.55071 34846 ft 447 kts 171°
2026-05-06 21:14 43.61384 2.56151 34422 ft 447 kts 171°
2026-05-06 21:14 43.58373 2.57233 33990 ft 447 kts 171°
2026-05-06 21:15 43.55367 2.58317 33489 ft 444 kts 171°
2026-05-06 21:15 43.52429 2.59377 33010 ft 440 kts 171°
2026-05-06 21:15 43.49461 2.60442 32523 ft 437 kts 171°
2026-05-06 21:15 43.46526 2.61488 32050 ft 435 kts 171°
2026-05-06 21:16 43.43603 2.62528 31590 ft 432 kts 171°
2026-05-06 21:16 43.40693 2.63563 31124 ft 430 kts 171°
2026-05-06 21:16 43.37808 2.64591 30649 ft 427 kts 171°
2026-05-06 21:16 43.34940 2.65613 30136 ft 425 kts 171°
2026-05-06 21:17 43.32121 2.66626 29414 ft 412 kts 171°
2026-05-06 21:17 43.29429 2.67632 28714 ft 400 kts 170°
2026-05-06 21:17 43.26781 2.68647 28024 ft 389 kts 170°
2026-05-06 21:17 43.24192 2.69651 27361 ft 382 kts 170°
2026-05-06 21:18 43.21644 2.70639 26693 ft 378 kts 170°
2026-05-06 21:18 43.19127 2.71607 26069 ft 374 kts 170°
2026-05-06 21:18 43.16630 2.72558 25566 ft 371 kts 170°
2026-05-06 21:18 43.14146 2.73497 25071 ft 369 kts 169°
2026-05-06 21:19 43.11678 2.74432 24583 ft 367 kts 169°
2026-05-06 21:19 43.09226 2.75358 24099 ft 365 kts 169°
2026-05-06 21:19 43.06813 2.76269 23634 ft 363 kts 169°
2026-05-06 21:19 43.04386 2.77183 23097 ft 361 kts 169°
2026-05-06 21:20 43.01972 2.78093 22539 ft 357 kts 169°
2026-05-06 21:20 42.99592 2.78995 22005 ft 354 kts 169°
2026-05-06 21:20 42.97226 2.79889 21451 ft 350 kts 168°
2026-05-06 21:20 42.94887 2.80771 20930 ft 347 kts 168°
2026-05-06 21:21 42.92567 2.81647 20424 ft 344 kts 168°
2026-05-06 21:21 42.90264 2.82516 19926 ft 341 kts 168°
2026-05-06 21:21 42.88015 2.83360 19453 ft 338 kts 168°
2026-05-06 21:21 42.85763 2.84207 18967 ft 334 kts 168°
2026-05-06 21:22 42.83528 2.85048 18493 ft 331 kts 168°
2026-05-06 21:22 42.81317 2.85878 17962 ft 328 kts 168°
2026-05-06 21:22 42.79118 2.86701 17437 ft 325 kts 168°
2026-05-06 21:22 42.76945 2.87514 16905 ft 323 kts 167°
2026-05-06 21:23 42.74785 2.88324 16377 ft 320 kts 167°
2026-05-06 21:23 42.72641 2.89130 15863 ft 317 kts 167°
2026-05-06 21:23 42.70517 2.89926 15354 ft 315 kts 167°
2026-05-06 21:23 42.68443 2.90704 14870 ft 312 kts 167°
2026-05-06 21:24 42.66326 2.91502 14368 ft 310 kts 167°
2026-05-06 21:24 42.64285 2.92265 13902 ft 308 kts 167°
2026-05-06 21:24 42.62226 2.93033 13371 ft 305 kts 167°
2026-05-06 21:24 42.60185 2.93796 12854 ft 303 kts 166°
2026-05-06 21:25 42.58156 2.94554 12462 ft 302 kts 167°
2026-05-06 21:25 42.56132 2.95307 12079 ft 301 kts 167°
2026-05-06 21:25 42.54113 2.96053 11670 ft 301 kts 167°
2026-05-06 21:25 42.52093 2.96801 11276 ft 301 kts 167°
2026-05-06 21:26 42.50063 2.97527 10867 ft 300 kts 171°
2026-05-06 21:26 42.47996 2.97805 10460 ft 298 kts 183°
2026-05-06 21:26 42.45997 2.97354 10073 ft 295 kts 197°
2026-05-06 21:26 42.44018 2.96613 9608 ft 295 kts 197°
2026-05-06 21:27 42.42034 2.95866 9129 ft 296 kts 197°
2026-05-06 21:27 42.40048 2.95117 8646 ft 296 kts 197°
2026-05-06 21:27 42.38071 2.94367 8226 ft 294 kts 197°
2026-05-06 21:27 42.36108 2.93619 7779 ft 291 kts 197°
2026-05-06 21:28 42.34195 2.92887 7326 ft 281 kts 197°
2026-05-06 21:28 42.32345 2.92176 6886 ft 271 kts 197°
2026-05-06 21:28 42.30559 2.91488 6450 ft 263 kts 197°
2026-05-06 21:28 42.28831 2.90826 6063 ft 253 kts 197°
2026-05-06 21:29 42.27180 2.90179 5744 ft 242 kts 197°
2026-05-06 21:29 42.25576 2.89558 5455 ft 239 kts 196°
2026-05-06 21:29 42.23980 2.88947 5240 ft 239 kts 196°
2026-05-06 21:29 42.22411 2.88347 5054 ft 236 kts 196°
2026-05-06 21:30 42.20827 2.87741 4935 ft 237 kts 196°
2026-05-06 21:30 42.19238 2.87134 4809 ft 237 kts 195°
2026-05-06 21:30 42.17652 2.86529 4680 ft 236 kts 195°
2026-05-06 21:30 42.16067 2.85923 4547 ft 237 kts 196°
2026-05-06 21:31 42.14490 2.85322 4419 ft 235 kts 195°
2026-05-06 21:31 42.12943 2.84732 4297 ft 227 kts 195°
2026-05-06 21:31 42.11451 2.84163 4160 ft 219 kts 195°
2026-05-06 21:31 42.10014 2.83616 4030 ft 211 kts 195°
2026-05-06 21:32 42.08626 2.83087 3931 ft 204 kts 195°
2026-05-06 21:32 42.05983 2.82082 3473 ft 192 kts 195°
2026-05-06 21:32 42.04705 2.81596 3219 ft 189 kts 195°
2026-05-06 21:33 42.03455 2.81121 2971 ft 184 kts 195°
2026-05-06 21:33 42.02233 2.80656 2725 ft 180 kts 195°
2026-05-06 21:33 42.01054 2.80209 2494 ft 177 kts 195°
2026-05-06 21:33 41.99879 2.79763 2251 ft 174 kts 195°
2026-05-06 21:34 41.98729 2.79326 2032 ft 169 kts 195°
2026-05-06 21:34 41.97623 2.78907 1801 ft 160 kts 195°
2026-05-06 21:34 41.96586 2.78513 1589 ft 150 kts 195°
2026-05-06 21:34 41.95615 2.78145 1392 ft 140 kts 195°
2026-05-06 21:35 41.94697 2.77798 1187 ft 135 kts 195°
2026-05-06 21:35 41.93801 2.77456 999 ft 135 kts 195°
2026-05-06 21:35 41.92895 2.77127 829 ft 135 kts 193°
2026-05-06 21:35 41.91993 2.76802 634 ft 134 kts 195°
2026-05-06 21:36 41.91103 2.76438 471 ft 129 kts 193°
2026-05-06 21:36 41.90354 2.76153 450 ft 94 kts 195°
2026-05-06 21:36 41.89841 2.75961 424 ft 62 kts 195°
2026-05-06 21:36 41.89591 2.75863 417 ft 21 kts 196°
2026-05-06 21:37 41.89524 2.75947 411 ft 16 kts 67°
2026-05-06 21:37 41.89570 2.76052 411 ft 13 kts 58°
2026-05-06 21:37 41.89642 2.76115 415 ft 13 kts 15°
2026-05-06 21:37 41.89717 2.76143 413 ft 10 kts 15°
2026-05-06 21:38 41.89781 2.76168 416 ft 9 kts 16°
2026-05-06 21:38 41.89835 2.76188 420 ft 7 kts 16°
2026-05-06 21:38 41.89881 2.76206 419 ft 7 kts 17°
2026-05-06 21:38 41.89908 2.76257 420 ft 9 kts 88°
2026-05-06 21:39 41.89886 2.76363 419 ft 12 kts 113°
2026-05-06 21:39 41.89811 2.76383 418 ft 9 kts 195°
2026-05-06 21:39 41.89778 2.76393 410 ft 4 kts 134°
2026-05-06 21:39 41.89773 2.76428 418 ft 2 kts 88°
2026-05-06 21:40 41.89770 2.76454 419 ft 2 kts 104°
2026-05-06 21:40 41.89769 2.76462 419 ft 0 kts 105°